Location: Zagreb
(45.8000°N, 16.0000°E)
Time: 01:05:32
(UTC+01:00)

Tiros 1 despin weight - Pass Details

Date: 28 January 2020
Orbit: 594 x 642 km, 48.2° (Epoch: 25 February)

Event Time Altitude Azimuth Distance (km) Brightness Sun altitude
Rises 14:51:52 0° 289° (WNW) 2,896 ? 16.1°
Reaches altitude 10° 14:54:10 10° 287° (WNW) 1,996 ? 15.8°
Maximum altitude 14:58:44 70° 204° (SSW) 670 ? 15.3°
Drops below altitude 10° 15:03:22 10° 121° (ESE) 2,016 ? 14.8°
Sets 15:05:42 0° 119° (ESE) 2,927 ? 14.5°
